Preview of NWS' New Version of Forecast
This preview is not operational and should not be used for support decisions.

Regional Weather Roundup (RWR)

Issued by National Weather Service (NWS)

                            
000
ASCA42 TJSJ 161910
RWRPR 
PUERTO RICO/U.S. VIRGIN ISLANDS HOURLY WEATHER ROUNDUP
NATIONAL WEATHER SERVICE SAN JUAN PR
300 PM AST TUE APR 16 2019

PRZ001>002-007>008-010-162000-
PUERTO RICO
  
CITY           SKY/WX    TMP DP  RH WIND       PRES   REMARKS
SAN JUAN LMM   MOSUNNY   84  70  61 NE22G30   30.00F                  
AGUADILLA      SUNNY     82  72  69 E17G24    30.02F                  
CEIBA          SUNNY     86  68  54 E12       30.03F                  
$$

VIZ001>002-162000-
U.S. VIRGIN ISLANDS
  
CITY           SKY/WX    TMP DP  RH WIND       PRES   REMARKS
CHARLOTTE AMA  MOSUNNY   82  66  57 SE15      30.01F                  
CHRISTIANSTED  MOSUNNY   84  66  54 E16       30.01F                  
$$

HOURLY WEATHER ROUNDUP FOR THE NEWS MEDIA
  
CITY           SKY/WX    TMP DP  RH WIND       PRES   REMARKS
ORLANDO        FAIR      82  50  32 VRB6      30.15F                  
NEW YORK       FAIR      64  16  15 W20G30    29.97F                  
NEWARK         FAIR      65  12  12 W17G28    29.97F                  
CHICAGO        PTSUNNY   70  50  49 SW8       29.87F                  
HARTFORD       FAIR      57  28  33 W23G32    29.84F                  
BOSTON         FAIR      58  22  24 W23G31    29.82F                  
DALLAS         CLOUDY    76  57  51 S15G25    29.98F                  
PHILADELPHIA   FAIR      64  27  24 W21G28    30.04F                  
LOS ANGELES    PTSUNNY   65  50  58 W13       30.01S                  
WASHINGTON DC  FAIR      65  34  31 S8        30.10F